Location: Brantford
(43.1330°N, 80.2670°W)
Time: 19:36:24
(UTC-05:00)

Tiros 1 despin weight - Pass Details

Date: 24 November 2019
Orbit: 594 x 642 km, 48.2° (Epoch: 12 December)

Event Time Altitude Azimuth Distance (km) Brightness Sun altitude
Rises 18:50:00 0° 280° (W) 2,849 ? -21.5°
Reaches altitude 10° 18:54:09 10° 242° (WSW) 1,952 ? -22.2°
Maximum altitude 18:55:11 11° 229° (SW) 1,908 ? -22.4°
Drops below altitude 10° 18:56:13 10° 215° (SW) 1,956 ? -22.6°
Sets 19:00:25 0° 178° (S) 2,870 ? -23.4°
